Tracking 34142 objects as of 17-May-2026
HD Live streaming from Space Station
objects crossing your sky now

COSMOS 1275 DEB

Track COSMOS 1275 DEB now!
10-day predictions


NORAD ID: 14627
Int'l Code: 1981-053JT
Perigee: 848.5 km
Apogee: 899.9 km
Inclination: 82.8 °
Period: 102.3 minutes
Semi major axis: 7245 km
RCS: 0.0099 m2 (small)
Launch date: June 4, 1981
Source: Commonwealth of Independent States (former USSR) (CIS)
Launch site: PLESETSK MISSILE AND SPACE COMPLEX (PKMTR)

Note: This is SATELLITE DEBRIS
Your satellite tracking list
Your tracking list is empty




NASA's NSSDC Master Catalog

Two Line Element Set (TLE):
1 14627U 81053JQ  26137.29671075  .00001255  00000-0  72802-3 0  9998
2 14627  82.7800  70.4578 0035458  88.0603  65.7935 14.07761903157082
Source of the keplerian elements: AFSPC